#timestamp,LO_Frequency,Hit,StdDev 
1457766015.2,286046997.1,N
1457766035.0,286046999.4,N
1457766035.9,286046999.4,N
1457766055.8,286047000.9,N
1457766075.6,286046999.0,N
1457766095.4,286046999.2,N
1457766115.3,286047001.1,N
1457766135.1,286047001.9,N
1457766136.0,286047001.9,N
1457766155.8,286047003.5,N
1457766175.7,286047002.4,N
1457766195.5,286046999.6,N
1457766215.3,286046996.8,N
1457766235.1,286046997.3,N
1457766255.9,286047004.0,N
1457766275.7,286047001.7,N
1457766295.5,286047002.6,N
1457766315.4,286047000.7,N
1457766335.2,286046997.7,N
1457766355.0,286046997.4,N
1457766355.9,286046997.4,N
1457766375.8,286046997.3,N
1457766395.6,286046997.5,N
1457766415.4,286046995.2,N
1457766435.3,286047001.1,N
1457766455.1,286046996.6,N
1457766456.0,286046996.6,N
1457766475.8,286046996.5,N
1457766495.7,286046999.6,N
1457766515.5,286046999.3,N
1457766535.3,286046998.1,N
1457766555.2,286046999.8,N
1457766575.9,286047004.7,N
1457766595.7,286047003.9,N
1457766615.5,286047002.3,N
1457766635.4,286047001.9,N
1457766655.2,286047005.2,N
1457766675.0,286047006.2,N
1457766675.9,286047006.2,N
1457766695.8,286047010.0,Y
1457766715.6,286047010.5,P
1457766735.4,286047008.6,N
1457766755.3,286047010.2,N
1457766775.1,286047015.2,Y
1457766795.8,286047005.2,P
1457766815.7,286047004.6,P
1457766835.5,286047008.7,P
1457766855.4,286047008.8,Y
1457766875.2,286047002.4,P
1457766895.0,286047005.6,N
1457766895.9,286047005.6,P
1457766915.7,286047001.4,N
1457766935.6,286047003.3,N
1457766955.4,286047002.1,N
1457766975.2,286047003.8,N
1457766995.1,286047004.2,N
1457766996.0,286047004.2,N
1457767015.8,286047005.3,Y
1457767035.6,286047003.1,P
1457767055.5,286047006.5,P
1457767075.3,286047011.5,P
1457767095.1,286047016.9,Y
1457767115.9,286047008.5,P
1457767135.7,286047006.6,P
1457767155.5,286047006.5,P
1457767175.4,286047007.8,Y
1457767195.2,286047003.9,P
1457767215.0,286047000.6,N
1457767215.9,286047000.6,N
1457767235.8,286046998.2,N
1457767255.6,286047001.2,N
1457767275.4,286046995.3,N
1457767295.3,286047001.1,N
1457767315.1,286046998.7,N
1457767335.8,286047002.4,N
1457767355.7,286047002.0,N
1457767375.5,286047003.5,N
1457767395.3,286047003.4,N
1457767415.2,286047002.1,N
1457767435.9,286047002.2,N
1457767455.7,286046998.5,N
1457767475.5,286047001.2,N
1457767495.4,286046999.0,N
1457767515.2,286046998.5,N
1457767535.0,286047000.4,N
1457767535.9,286047000.4,N
1457767555.8,286047000.8,N
1457767575.6,286046999.9,N
1457767595.4,286046999.0,N
1457767615.3,286047000.2,N
1457767635.1,286047000.5,N
1457767655.8,286047003.8,N
1457767675.7,286047001.6,N
1457767695.5,286046999.0,N
1457767715.3,286046999.3,N
1457767735.2,286046995.0,N
1457767755.9,286046995.0,N
1457767775.7,286046999.5,N
1457767795.6,286046995.7,N
1457767815.4,286047000.6,N
1457767835.2,286047001.5,N
1457767855.1,286047007.8,Y
1457767856.0,286047007.8,P
1457767875.8,286047008.7,N
1457767895.6,286047010.9,N
1457767915.5,286047013.4,Y
1457767935.3,286047005.1,P
1457767955.1,286047005.0,P
1457767975.9,286047005.5,P
1457767995.7,286047006.7,Y
1457768015.5,286047002.3,P
1457768035.4,286047002.7,N
1457768055.2,286047001.8,N
1457768075.0,286047005.0,Y
1457768075.9,286047005.0,P
1457768095.8,286047000.5,N
1457768115.6,286047002.7,N
1457768135.4,286047004.4,N
1457768155.3,286047004.8,Y
1457768175.1,286047002.2,P
1457768176.0,286047002.2,P
1457768195.8,286046998.7,N
1457768215.7,286046999.8,N
1457768235.5,286047002.7,N
1457768255.3,286047002.2,N
1457768275.2,286046999.3,N
1457768295.9,286046996.7,N
1457768315.7,286046999.7,N
1457768335.5,286046999.5,N
1457768355.4,286046999.1,N
1457768375.2,286046995.7,N
1457768395.0,286046996.4,N
1457768395.9,286046996.4,N
1457768415.8,286046997.4,N
1457768435.6,286046998.4,N
1457768455.4,286046994.0,N
1457768475.3,286046991.6,Y
1457768495.1,286046991.0,P
1457768515.8,286046988.5,N
1457768535.7,286046988.7,N
1457768555.5,286046991.6,N
1457768575.3,286046987.7,Y
1457768595.2,286046996.1,P
1457768615.9,286046992.5,P
1457768635.7,286046992.5,P
1457768655.6,286046990.7,Y
1457768675.4,286046993.8,P
1457768695.2,286046994.0,P
1457768715.1,286046991.0,P
1457768716.0,286046991.0,Y
1457768735.8,286046996.5,P
1457768755.6,286046999.6,N
1457768775.5,286046998.7,N
1457768795.3,286046997.4,N
1457768815.1,286046999.5,N
1457768835.9,286046997.1,N
1457768855.7,286046994.8,N
1457768875.5,286046994.7,N
1457768895.4,286046994.4,N
1457768915.2,286046990.5,Y
1457768935.0,286046993.3,P
1457768935.9,286046993.3,P
1457768955.8,286046997.9,N
1457768975.6,286046995.7,N
1457768995.4,286046995.5,N
1457769015.3,286046991.9,Y
1457769035.1,286047000.7,P
1457769036.0,286047000.7,N
1457769055.8,286046998.8,N
1457769075.7,286047003.9,N
1457769095.5,286047004.2,N
1457769115.3,286047002.7,N
1457769135.1,286047001.3,N
1457769155.9,286047001.9,N
1457769175.7,286047003.8,N
1457769195.5,286047001.3,N
1457769215.4,286047001.9,N
1457769235.2,286047002.7,N
1457769255.0,286047002.5,N
1457769255.9,286047002.5,N
1457769275.8,286047001.7,N
1457769295.6,286047001.6,N
1457769315.4,286047004.6,N
1457769335.3,286047005.5,N
1457769355.1,286047004.7,N
1457769356.0,286047004.7,N
1457769375.8,286047001.3,N
1457769395.7,286047003.6,N
1457769415.5,286047002.2,N
1457769435.3,286047002.2,N
1457769455.1,286047004.6,N
1457769475.9,286047010.5,Y
1457769495.7,286047006.3,P
1457769515.6,286047005.2,N
1457769535.4,286047003.6,N
1457769555.2,286047005.9,Y
1457769575.1,286047000.5,P
1457769576.0,286047000.5,N
1457769595.8,286047000.2,N
